KB3HLL Weather Reports


time (UTC)temp
C
wind
direction
speed
KPH
gust
KPH
rain 1hr
cm
rain 24hr
cm
rain mn
cm
humidity
%
barometer
mb
20260510061117 9 112 9.7 12.9 0.00 0.00 0.00 99 1008.9
20260510060618 9 142 12.9 14.5 0.00 0.00 0.00 99 1010.4
20260510060117 10 145 9.7 11.3 0.00 0.00 0.00 99 1011.3
20260510055618 10 155 9.7 14.5 0.00 0.00 0.00 99 1011.9
20260510055118 10 153 4.8 8.0 0.00 0.00 0.00 95 1012.1
20260510054617 10 224 1.6 4.8 0.00 0.00 0.00 94 1012.3
20260510054117 10 293 1.6 3.2 0.00 0.00 0.00 95 1012.4
20260510053617 10 263 1.6 3.2 0.00 0.00 0.00 97 1012.6
20260510053119 10 297 3.2 6.4 0.00 0.00 0.00 96 1012.7
20260510052619 10 289 4.8 9.7 0.00 0.00 0.00 94 1012.6
20260510052117 10 274 3.2 9.7 0.00 0.00 0.00 95 1012.7
20260510051617 10 283 4.8 8.0 0.00 0.00 0.00 96 1012.7
20260510051118 9 346 1.6 1.6 0.00 0.00 0.00 99 1012.3
20260510050618 9 284 3.2 4.8 0.00 0.00 0.00 99 1011.4
20260510050119 9 326 6.4 8.0 0.00 0.00 0.00 99 1010.3
20260510045618 9 329 4.8 8.0 0.00 0.00 0.00 99 1009.5
20260510045117 9 319 6.4 12.9 0.00 0.00 0.00 99 1009.3
20260510044617 9 325 4.8 8.0 0.00 0.00 0.00 99 1009.4
20260510044117 9 333 6.4 8.0 0.00 0.00 0.00 99 1009.4
20260510043618 9 325 6.4 9.7 0.00 0.00 0.00 99 1009.5
20260510043117 9 324 8.0 11.3 0.00 0.00 0.00 99 1009.6
20260510042617 9 340 9.7 14.5 0.00 0.00 0.00 99 1009.8
20260510042119 9 326 6.4 9.7 0.00 0.00 0.00 99 1009.5
20260510041619 9 327 4.8 6.4 0.00 0.00 0.00 99 1009.4
20260510041117 9 340 4.8 6.4 0.00 0.00 0.00 99 1009.4
20260510040617 10 339 4.8 8.0 0.00 0.00 0.00 99 1009.3
20260510040117 10 334 3.2 3.2 0.00 0.00 0.00 99 1009.9
20260510035618 10 313 4.8 4.8 0.00 0.00 0.76 99 1010.6
20260510035117 10 153 3.2 6.4 0.00 0.00 0.76 99 1010.4
20260510034617 10 191 6.4 6.4 0.00 0.00 0.76 99 1010.7
20260510034118 10 186 4.8 6.4 0.00 0.00 0.76 99 1010.8
20260510033618 10 203 3.2 4.8 0.00 0.00 0.76 99 1010.6
20260510033118 10 207 1.6 3.2 0.00 0.00 0.76 99 1010.4
20260510032618 10 325 1.6 3.2 0.00 0.00 0.76 99 1010.2
20260510032119 10 233 3.2 6.4 0.00 0.00 0.76 99 1010.0
20260510031620 10 152 6.4 9.7 0.00 0.00 0.76 99 1009.1
20260510031118 10 159 8.0 11.3 0.00 0.00 0.76 99 1008.3
20260510030620 10 145 9.7 11.3 0.00 0.00 0.76 99 1008.1
20260510030119 10 136 8.0 11.3 0.00 0.00 0.76 99 1008.3
20260510025618 10 140 8.0 9.7 0.00 0.00 0.76 99 1008.2
20260510025117 10 142 9.7 14.5 0.00 0.00 0.76 99 1008.0
20260510024617 10 144 9.7 12.9 0.00 0.00 0.76 99 1008.0
20260510024117 10 140 8.0 12.9 0.00 0.00 0.76 99 1008.0
20260510023617 10 144 9.7 11.3 0.00 0.00 0.76 99 1007.8
20260510023118 10 145 9.7 12.9 0.00 0.00 0.76 99 1008.0
20260510022618 10 142 8.0 11.3 0.00 0.00 0.76 99 1007.8
20260510022118 10 146 9.7 11.3 0.00 0.00 0.76 99 1008.0
20260510021618 10 144 8.0 11.3 0.00 0.00 0.76 99 1008.1
20260510021118 10 155 8.0 11.3 0.00 0.00 0.76 99 1008.1
20260510020618 10 141 9.7 12.9 0.00 0.00 0.76 99 1008.1
20260510020117 10 143 9.7 12.9 0.00 0.00 0.76 99 1008.1
20260510015618 10 140 9.7 11.3 0.00 0.00 0.76 99 1008.2
20260510015117 10 143 8.0 9.7 0.00 0.00 0.76 99 1008.3
20260510014617 10 140 9.7 12.9 0.00 0.00 0.76 99 1008.4
20260510014117 10 142 8.0 11.3 0.00 0.00 0.76 99 1008.3
20260510013617 10 141 9.7 11.3 0.00 0.00 0.76 99 1008.2
20260510013117 10 142 9.7 14.5 0.00 0.00 0.76 99 1008.2
20260510012617 10 142 8.0 12.9 0.00 0.00 0.76 99 1008.1
20260510012117 10 137 8.0 11.3 0.00 0.00 0.76 99 1008.1
20260510011617 10 136 9.7 12.9 0.00 0.00 0.76 99 1008.1
20260510011118 10 139 11.3 14.5 0.00 0.00 0.76 99 1008.0
20260510010617 10 140 8.0 11.3 0.00 0.00 0.76 99 1008.0
20260510010119 10 139 9.7 11.3 0.00 0.00 0.76 99 1007.8
20260510005617 10 139 9.7 11.3 0.00 0.00 0.76 99 1007.7
20260510005118 10 135 11.3 14.5 0.00 0.00 0.76 99 1007.7
20260510004617 10 133 9.7 12.9 0.00 0.00 0.76 99 1007.7
20260510004117 10 139 9.7 11.3 0.00 0.00 0.76 99 1007.6
20260510003617 10 135 11.3 14.5 0.00 0.00 0.76 99 1007.5
20260510003117 10 130 11.3 14.5 0.00 0.00 0.76 99 1007.3
20260510002617 10 135 9.7 11.3 0.00 0.00 0.76 99 1007.3
20260510002117 10 132 11.3 14.5 0.00 0.00 0.76 99 1007.1
20260510001617 10 135 11.3 14.5 0.00 0.00 0.76 99 1007.0
20260510001117 10 137 11.3 12.9 0.00 0.00 0.76 99 1007.1
20260510000617 10 135 9.7 14.5 0.00 0.00 0.76 99 1007.1
20260510000118 10 140 9.7 12.9 0.00 0.00 0.76 99 1007.0
20260509235617 10 127 12.9 14.5 0.00 0.00 0.76 99 1006.8
20260509235117 10 136 9.7 11.3 0.00 0.00 0.76 99 1006.9
20260509234619 10 144 8.0 14.5 0.00 0.00 0.76 99 1006.9
20260509234118 10 139 8.0 11.3 0.00 0.00 0.76 99 1006.8
20260509233617 10 136 9.7 12.9 0.00 0.00 0.76 99 1006.8
20260509233118 10 149 8.0 11.3 0.00 0.00 0.76 99 1006.8
20260509232618 10 127 8.0 11.3 0.00 0.00 0.76 99 1006.7
20260509232118 10 125 9.7 11.3 0.00 0.00 0.76 99 1006.7
20260509231617 10 155 9.7 11.3 0.00 0.00 0.76 99 1006.7
20260509231118 10 132 9.7 14.5 0.00 0.00 0.76 99 1006.7
20260509230617 11 136 8.0 11.3 0.00 0.00 0.76 99 1006.8
20260509230117 11 142 9.7 12.9 0.00 0.00 0.76 99 1006.8
20260509225618 11 152 6.4 9.7 0.00 0.00 0.76 99 1006.8
20260509225117 11 148 8.0 9.7 0.00 0.00 0.76 99 1006.7
20260509224618 11 132 8.0 14.5 0.00 0.00 0.76 99 1006.8
20260509224118 10 148 8.0 9.7 0.00 0.00 0.76 100 1006.8
20260509223618 10 155 6.4 9.7 0.00 0.00 0.76 100 1006.8
20260509223117 10 152 6.4 8.0 0.00 0.00 0.76 100 1006.9
20260509222617 11 130 9.7 11.3 0.00 0.00 0.76 100 1007.0
20260509222121 11 159 8.0 11.3 0.00 0.00 0.76 100 1007.0
20260509221617 10 133 11.3 17.7 0.00 0.00 0.76 100 1006.8
20260509221118 10 135 9.7 14.5 0.00 0.00 0.76 100 1006.7
20260509220619 10 132 6.4 9.7 0.00 0.00 0.76 100 1006.8
20260509220120 10 129 9.7 11.3 0.00 0.00 0.76 100 1006.8
20260509215617 10 155 6.4 8.0 0.00 0.00 0.76 100 1006.9
20260509215117 10 153 4.8 8.0 0.00 0.00 0.76 100 1006.9
20260509214618 10 136 8.0 11.3 0.00 0.00 0.76 100 1006.8
20260509214117 10 145 8.0 9.7 0.00 0.00 0.76 100 1006.9
20260509213620 10 145 4.8 6.4 0.00 0.00 0.76 100 1007.1
20260509213119 10 174 6.4 9.7 0.00 0.00 0.76 100 1007.1
20260509212618 10 143 1.6 1.6 0.00 0.00 0.76 100 1007.1
20260509212117 10 175 3.2 3.2 0.00 0.00 0.76 100 1007.2
20260509211617 10 191 3.2 4.8 0.00 0.00 0.76 100 1007.4
20260509211118 10 169 4.8 6.4 0.00 0.00 0.76 100 1007.5
20260509210619 10 146 4.8 6.4 0.00 0.00 0.76 100 1007.6
20260509210119 10 156 6.4 6.4 0.00 0.00 0.76 100 1007.7
20260509205618 10 145 4.8 4.8 0.00 0.00 0.76 100 1007.4
20260509205117 10 194 4.8 6.4 0.05 0.00 0.76 100 1007.3
20260509204619 10 156 6.4 6.4 0.05 0.00 0.76 100 1007.2
20260509204118 10 240 3.2 4.8 0.05 0.00 0.76 100 1007.2
20260509203618 10 232 1.6 1.6 0.08 0.00 0.76 100 1007.4
20260509203118 10 242 1.6 1.6 0.08 0.00 0.76 100 1007.5
20260509202617 10 201 6.4 11.3 0.08 0.00 0.76 100 1007.5
20260509202118 9 235 3.2 6.4 0.08 0.00 0.79 100 1007.5
20260509201617 9 224 4.8 8.0 0.08 0.00 0.79 100 1007.6
20260509201118 9 222 4.8 6.4 0.08 0.00 0.79 100 1007.7
20260509200618 9 226 4.8 8.0 0.08 0.00 0.79 100 1007.8
20260509200119 9 205 6.4 16.1 0.08 0.00 0.79 100 1008.0
20260509195617 9 193 3.2 4.8 0.03 0.00 0.79 100 1008.1
20260509195118 9 224 6.4 11.3 0.03 0.00 0.74 100 1008.2
20260509194617 9 190 3.2 4.8 0.03 0.00 0.74 100 1008.3
20260509194117 9 201 6.4 9.7 0.03 0.00 0.71 99 1008.3
20260509193617 9 189 4.8 6.4 0.03 0.00 0.71 99 1008.3
20260509193117 9 184 8.0 11.3 0.03 0.00 0.71 99 1008.4
20260509192617 9 142 4.8 8.0 0.05 0.00 0.71 99 1008.4
20260509192117 9 182 6.4 8.0 0.05 0.00 0.74 100 1008.2
20260509191617 9 215 4.8 8.0 0.08 0.00 0.74 100 1008.3
20260509191125 8 166 4.8 8.0 0.08 0.00 0.74 100 1008.4
20260509190617 8 211 6.4 8.0 0.08 0.00 0.74 100 1008.3
20260509190118 8 214 6.4 9.7 0.08 0.00 0.74 99 1008.4
20260509185619 8 177 3.2 4.8 0.08 0.00 0.74 99 1008.5
20260509185117 8 174 6.4 11.3 0.08 0.00 0.71 99 1008.4
20260509184617 8 187 4.8 8.0 0.10 0.00 0.71 99 1008.3
20260509184118 8 155 6.4 6.4 0.10 0.00 0.71 99 1008.4
20260509183617 8 151 6.4 9.7 0.10 0.00 0.71 99 1008.4
20260509183119 8 220 3.2 4.8 0.10 0.00 0.71 99 1008.4
20260509182618 8 145 8.0 11.3 0.13 0.00 0.71 99 1008.4
20260509182117 8 167 8.0 9.7 0.13 0.00 0.69 99 1008.4
20260509181617 8 143 6.4 9.7 0.13 0.00 0.69 99 1008.4
20260509181118 8 155 6.4 9.7 0.13 0.00 0.69 99 1008.4
20260509180617 8 144 6.4 11.3 0.15 0.00 0.66 99 1008.4
20260509180117 8 145 9.7 12.9 0.15 0.00 0.64 99 1008.3
20260509175619 8 143 6.4 11.3 0.15 0.00 0.64 99 1008.3
20260509175117 8 141 8.0 11.3 0.15 0.00 0.64 99 1008.3
20260509174618 8 147 6.4 11.3 0.15 0.00 0.64 99 1008.3
20260509174117 8 149 9.7 12.9 0.15 0.00 0.64 99 1008.3
20260509173620 8 144 9.7 14.5 0.15 0.00 0.58 99 1008.3
20260509173118 8 153 6.4 9.7 0.18 0.00 0.58 99 1008.3
20260509172619 8 139 11.3 16.1 0.18 0.00 0.58 99 1008.3
20260509172118 8 146 8.0 14.5 0.18 0.00 0.61 99 1008.3
20260509171620 8 147 9.7 14.5 0.18 0.00 0.58 99 1008.2
20260509171118 8 147 9.7 17.7 0.15 0.00 0.58 99 1008.3
20260509170618 8 140 9.7 12.9 0.15 0.00 0.56 99 1008.3
20260509170118 8 140 9.7 12.9 0.10 0.00 0.56 99 1008.3
20260509165618 8 138 9.7 14.5 0.10 0.00 0.53 99 1008.3
20260509165120 8 145 9.7 16.1 0.10 0.00 0.51 99 1008.3
20260509164619 8 137 9.7 16.1 0.05 0.00 0.51 99 1008.3
20260509164118 8 146 12.9 17.7 0.05 0.00 0.48 99 1008.3
20260509163618 8 144 9.7 14.5 0.05 0.00 0.46 99 1008.2
20260509163119 8 152 9.7 17.7 0.05 0.00 0.46 99 1008.3
20260509162618 8 139 8.0 11.3 0.05 0.00 0.43 99 1008.2
20260509162118 7 144 9.7 12.9 0.05 0.00 0.43 99 1008.3
20260509161618 7 150 9.7 14.5 0.10 0.00 0.43 99 1008.4
20260509161119 7 154 9.7 12.9 0.10 0.00 0.41 99 1008.5
20260509160618 7 148 8.0 9.7 0.10 0.00 0.41 99 1008.4
20260509160118 7 148 8.0 9.7 0.13 0.00 0.41 99 1008.5
20260509155620 7 139 11.3 14.5 0.13 0.00 0.41 99 1008.4
20260509155118 7 141 8.0 11.3 0.13 0.00 0.38 100 1008.5
20260509154617 7 139 11.3 14.5 0.13 0.00 0.38 100 1008.6
20260509154117 7 160 9.7 11.3 0.15 0.00 0.38 100 1008.6
20260509153618 7 146 9.7 14.5 0.15 0.00 0.36 100 1008.6
20260509153118 7 162 9.7 12.9 0.15 0.00 0.36 100 1008.6
20260509152618 7 147 9.7 12.9 0.18 0.00 0.36 100 1008.7
20260509152118 7 147 8.0 11.3 0.18 0.00 0.36 99 1008.7
20260509151618 7 144 6.4 9.7 0.15 0.00 0.33 99 1008.7
20260509151117 7 151 9.7 12.9 0.15 0.00 0.33 99 1008.7
20260509150617 7 164 9.7 12.9 0.15 0.00 0.30 99 1008.7
20260509150119 7 150 9.7 11.3 0.15 0.00 0.30 99 1008.7
20260509145619 7 137 9.7 11.3 0.15 0.00 0.28 99 1008.7
20260509145119 7 166 9.7 9.7 0.15 0.00 0.28 99 1008.7
20260509144617 7 151 8.0 11.3 0.10 0.00 0.25 99 1008.7
20260509144120 7 153 9.7 14.5 0.10 0.00 0.25 99 1008.8
20260509143617 7 137 11.3 16.1 0.08 0.00 0.23 99 1008.6
20260509143119 7 147 12.9 17.7 0.08 0.00 0.23 99 1008.5
20260509142618 7 140 12.9 17.7 0.05 0.00 0.20 99 1008.4
20260509142121 7 143 9.7 14.5 0.05 0.00 0.15 99 1008.5
20260509141618 7 145 11.3 14.5 0.03 0.00 0.15 99 1008.5
20260509141119 7 155 11.3 14.5 0.00 0.00 0.15 99 1008.5
20260509140619 7 148 8.0 11.3 0.00 0.00 0.13 99 1008.5
20260509140119 7 134 9.7 11.3 0.00 0.00 0.13 99 1008.4
20260509135618 7 146 9.7 12.9 0.00 0.00 0.10 99 1008.3
20260509135119 7 142 8.0 11.3 0.00 0.00 0.10 99 1008.2
20260509134618 7 143 9.7 11.3 0.00 0.00 0.10 99 1008.3
20260509134117 7 148 9.7 11.3 0.00 0.00 0.10 99 1008.5
20260509133618 7 132 9.7 12.9 0.00 0.00 0.10 99 1008.5
20260509133120 7 142 6.4 8.0 0.00 0.00 0.10 99 1008.5
20260509132618 7 144 9.7 11.3 0.00 0.00 0.10 99 1008.6
20260509132117 7 144 8.0 11.3 0.00 0.00 0.10 99 1008.5
20260509131617 7 149 9.7 12.9 0.00 0.00 0.10 99 1008.6
20260509131118 7 152 9.7 14.5 0.00 0.00 0.10 99 1009.0
20260509130617 7 146 9.7 12.9 0.00 0.00 0.10 99 1009.6
20260509130117 7 150 9.7 11.3 0.00 0.00 0.10 99 1009.9
20260509125618 7 156 6.4 8.0 0.00 0.00 0.10 99 1009.8
20260509125117 7 160 9.7 9.7 0.00 0.00 0.10 99 1010.2
20260509124618 7 161 8.0 9.7 0.00 0.00 0.10 99 1010.6
20260509124117 7 168 8.0 12.9 0.00 0.00 0.10 99 1010.9
20260509123618 7 149 11.3 14.5 0.00 0.00 0.10 99 1011.2
20260509123119 7 161 8.0 9.7 0.00 0.00 0.10 99 1011.0
20260509122617 7 155 6.4 9.7 0.00 0.00 0.10 99 1010.9
20260509122118 7 156 8.0 11.3 0.00 0.00 0.10 99 1011.2
20260509121618 7 150 8.0 11.3 0.00 0.00 0.10 99 1011.4
20260509121117 7 148 8.0 9.7 0.00 0.00 0.10 100 1011.6
20260509120618 7 161 8.0 9.7 0.00 0.00 0.10 100 1011.7
20260509120117 7 150 9.7 11.3 0.00 0.00 0.10 99 1011.6
20260509115618 7 165 8.0 9.7 0.00 0.00 0.10 99 1011.3
20260509115118 7 158 9.7 12.9 0.00 0.00 0.10 99 1010.7
20260509114618 7 142 9.7 12.9 0.00 0.00 0.10 99 1010.2
20260509114119 7 141 8.0 11.3 0.00 0.00 0.10 99 1010.2
20260509113617 7 143 11.3 14.5 0.00 0.00 0.10 99 1010.3
20260509113118 7 140 9.7 11.3 0.00 0.00 0.10 99 1010.6
20260509112619 7 141 9.7 12.9 0.00 0.00 0.10 99 1010.8
20260509112119 7 152 9.7 12.9 0.00 0.00 0.10 99 1010.9
20260509111617 7 141 9.7 14.5 0.00 0.00 0.10 99 1010.9
20260509111120 7 149 8.0 11.3 0.00 0.00 0.10 99 1010.9
20260509110621 7 130 8.0 11.3 0.00 0.00 0.10 99 1010.8
20260509110118 7 143 11.3 16.1 0.00 0.00 0.10 99 1010.7
20260509105618 7 154 9.7 12.9 0.00 0.00 0.10 99 1009.9
20260509105119 7 206 3.2 8.0 0.00 0.00 0.10 99 1010.0
20260509104617 7 131 14.5 17.7 0.00 0.00 0.10 99 1009.2
20260509104120 7 156 11.3 14.5 0.00 0.00 0.10 99 1009.1
20260509103617 7 135 12.9 17.7 0.00 0.00 0.10 99 1008.8
20260509103119 7 125 14.5 19.3 0.00 0.00 0.10 99 1008.3
20260509102617 7 127 12.9 20.9 0.00 0.00 0.10 99 1008.3
20260509102117 7 127 12.9 19.3 0.00 0.00 0.10 99 1008.4
20260509101617 7 131 14.5 19.3 0.00 0.00 0.10 99 1008.4
20260509101117 6 130 12.9 17.7 0.00 0.00 0.10 99 1008.5
20260509100619 6 126 12.9 19.3 0.00 0.00 0.10 99 1008.6
20260509100117 6 129 11.3 16.1 0.00 0.00 0.10 99 1008.7
20260509095618 6 130 11.3 17.7 0.00 0.00 0.10 99 1008.7
20260509095118 6 129 9.7 14.5 0.00 0.00 0.10 99 1008.8
20260509094619 6 127 9.7 11.3 0.00 0.00 0.10 99 1008.8
20260509094117 6 134 9.7 12.9 0.00 0.00 0.10 99 1008.9
20260509093618 6 127 8.0 11.3 0.00 0.00 0.10 99 1009.0
20260509093118 6 126 9.7 12.9 0.00 0.00 0.10 99 1008.9
20260509092617 6 121 9.7 11.3 0.00 0.00 0.10 99 1009.0
20260509092117 6 132 9.7 12.9 0.00 0.00 0.10 99 1009.2
20260509091617 6 129 9.7 11.3 0.00 0.00 0.10 99 1009.3
20260509091117 6 124 9.7 12.9 0.00 0.00 0.10 99 1009.3
20260509090618 6 117 8.0 9.7 0.00 0.00 0.10 99 1009.2
20260509090119 6 129 11.3 14.5 0.00 0.00 0.10 99 1009.1
20260509085617 6 129 11.3 14.5 0.00 0.00 0.10 99 1009.1
20260509085119 6 114 9.7 12.9 0.00 0.00 0.10 99 1009.0
20260509084617 6 124 11.3 14.5 0.00 0.00 0.10 99 1009.1
20260509084117 6 132 9.7 11.3 0.00 0.00 0.10 99 1009.2
20260509083617 6 125 9.7 9.7 0.00 0.00 0.10 99 1009.2
20260509083120 6 128 8.0 9.7 0.00 0.00 0.10 99 1009.1
20260509082618 6 124 8.0 11.3 0.00 0.00 0.10 99 1009.0
20260509082119 6 121 9.7 11.3 0.00 0.00 0.10 99 1008.9
20260509081617 6 110 6.4 8.0 0.03 0.00 0.10 99 1008.9
20260509081119 6 134 6.4 6.4 0.05 0.00 0.10 99 1008.9
20260509080618 6 100 4.8 6.4 0.05 0.00 0.10 99 1008.9
20260509080120 6 143 6.4 6.4 0.05 0.00 0.10 99 1008.9
20260509075627 6 117 6.4 8.0 0.05 0.00 0.10 99 1008.7
20260509075117 7 129 4.8 6.4 0.05 0.00 0.10 99 1008.7
20260509074617 7 96 1.6 4.8 0.08 0.00 0.10 99 1008.8
20260509074117 7 132 6.4 8.0 0.08 0.00 0.10 99 1008.7
20260509073617 7 116 4.8 6.4 0.10 0.00 0.10 99 1008.8
20260509073119 7 119 3.2 3.2 0.10 0.00 0.10 99 1009.0
20260509072617 7 123 3.2 4.8 0.13 0.00 0.10 99 1009.4
20260509072117 7 0 0.0 0.0 0.13 0.00 0.13 99 1009.6
20260509071617 7 0 0.0 0.0 0.08 0.00 0.13 99 1009.5
20260509071117 7 0 0.0 0.0 0.08 0.00 0.13 99 1009.6
20260509070617 7 0 0.0 0.0 0.08 0.00 0.10 99 1009.6
20260509070120 7 341 0.0 1.6 0.05 0.00 0.08 99 1009.6
20260509065623 7 327 3.2 3.2 0.05 0.00 0.08 99 1009.4
20260509065118 7 335 3.2 3.2 0.05 0.00 0.08 99 1009.5
20260509064617 7 340 4.8 6.4 0.05 0.00 0.05 99 1009.6
20260509064118 7 335 4.8 8.0 0.03 0.00 0.05 99 1009.9
20260509063618 7 344 6.4 9.7 0.03 0.00 0.05 99 1010.1
20260509063117 7 333 4.8 6.4 0.03 0.00 0.03 99 1010.2
20260509062618 7 335 4.8 6.4 0.00 0.00 0.03 99 1010.5
20260509062118 7 327 4.8 4.8 0.00 0.00 0.03 99 1010.9
20260509061618 7 317 3.2 3.2 0.00 0.00 0.00 99 1011.2